Regional Weather Roundup
Issued by NWS

Home | Current Version | Previous Version | Text Only | Print | Product List | Glossary On
Versions: 1 2 3 4 5 6 7 8 9 10 11 12 13 14 15 16 17 18 19 20 21 22 23 24 25 26 27 28 29 30 31 32 33 34 35 36 37 38 39 40 41 42 43 44 45 46 47 48 49 50
000
ASUS43 KTOP 300659
RWRKS

WEATHER ROUNDUP FOR KANSAS
NATIONAL WEATHER SERVICE GOODLAND KS
200 AM CDT SUN APR 30 2017

NOTE:  "FAIR" INDICATES FEW OR NO CLOUDS BELOW 12,000 FEET WITH NO
SIGNIFICANT WEATHER AND/OR OBSTRUCTIONS TO VISIBILITY.

KSZ001>006-013>018-027>032-041>047-300800-
NORTHWEST KANSAS

CITY           SKY/WX    TMP DP  RH WIND       PRES   REMARKS
GOODLAND       FLURRIES  32  31  96 N30G39    29.88  WCI  18
HAYS           MIX PCPN  36  34  92 N28G36    29.78  FOG     WCI  23
HILL CITY      MIX PCPN  35  34  96 N26G36    29.85  FOG     WCI  22
RUSSELL        LGT SNOW  38  37  97 N29G36    29.75  FOG     WCI  26
$$

KSZ061>065-074>080-084>089-300800-
SOUTHWEST KANSAS

CITY           SKY/WX    TMP DP  RH WIND       PRES   REMARKS
DODGE CITY     LGT RAIN  34  33  96 N22G31    29.72F FOG     WCI  22
ELKHART          N/A     31  37 100 NW20        N/A  WCI  19
GREAT BEND     LGT RAIN  39  37  92 N33G40    29.67F FOG     WCI  27
LIBERAL        LGT SNOW  32  32 100 NW18      29.78S FOG     WCI  20
$$

KSZ066>073-081>083-090>101-300800-
SOUTHEAST KANSAS

CITY           SKY/WX    TMP DP  RH WIND       PRES   REMARKS
CHANUTE        CLOUDY    57  55  93 E12       29.61R
COFFEYVILLE    CLOUDY    59  58  96 NE7       29.57
HUTCHINSON     LGT RAIN  41  39  93 NE17G31   29.66F FOG
MEDICINE LODGE   N/A    N/A N/A N/A N8G22     29.65R
NEWTON         LGT RAIN  41  40  96 NE24G31   29.65  FOG
PARSONS        CLOUDY    58  56  93 VRB3      29.60
WICHITA INTL   LGT RAIN  44  43  96 N18       29.63F FOG
WICHITA JABRA  LGT RAIN  43  42  97 N22G33    29.62F FOG
WICHITA MCCONL MIX PCPN  43  41  93 NE22      29.62F FOG
WINFIELD       CLOUDY    46  44  93 NE14G22   29.59  FOG
$$

KSZ007>012-019>026-033>040-048>060-102>105-300800-
NORTHEAST KANSAS

CITY           SKY/WX    TMP DP  RH WIND       PRES   REMARKS
CONCORDIA      LGT RAIN  39  38  96 N18G31    29.81F FOG     WCI  30
EMPORIA        LGT RAIN  43  43 100 N14G26    29.68F FOG
LAWRENCE       CLOUDY    44  44 100 N15       29.71R
MANHATTAN      CLOUDY    42  32  67 NE17G26   29.75
OLATHE IND     CLOUDY    44  44 100 N20       29.69R FOG
OLATHE EXE     CLOUDY    44  44 100 N9        29.69R FOG
SALINA         LGT RAIN  42  39  89 N23G31    29.74F FOG
TOPEKA BILLARD LGT RAIN  43  43 100 N20G26    29.71R FOG
TOPEKA FORBES  LGT RAIN  44  42  93 N15G26    29.70  FOG
$$




USA.gov is the U.S. government's official web portal to all federal, state and local government web resources and services.